FW6834 Weather Reports


time (UTC)temp
C
wind
direction
speed
KPH
gust
KPH
rain 1hr
cm
rain 24hr
cm
rain mn
cm
humidity
%
barometer
mb
20260510020602 24 128 11.3 16.1 0.00 0.00 0.00 46 1048.1
20260510015102 25 144 6.4 14.5 0.00 0.00 0.00 45 1047.4
20260510013602 25 124 9.7 16.1 0.00 0.00 0.00 44 1047.4
20260510012102 25 141 4.8 9.7 0.00 0.00 0.00 42 1047.7
20260510010602 26 97 4.8 11.3 0.00 0.00 0.00 41 1047.4
20260510005102 26 130 6.4 9.7 0.00 0.00 0.00 41 1047.7
20260510003602 27 163 9.7 11.3 0.00 0.00 0.00 40 1047.4
20260510002102 27 159 4.8 16.1 0.00 0.00 0.00 40 1047.4
20260510000603 27 174 4.8 12.9 0.00 0.00 0.00 40 1047.7
20260509235102 28 123 11.3 12.9 0.00 0.00 0.00 37 1047.4
20260509233603 29 215 9.7 16.1 0.00 0.00 0.00 35 1047.7
20260509232103 29 94 14.5 16.1 0.00 0.00 0.00 35 1047.7
20260509230603 29 112 9.7 16.1 0.00 0.00 0.00 32 1047.7
20260509223603 30 129 6.4 16.1 0.00 0.00 0.00 32 1048.1
20260509222102 30 99 8.0 16.1 0.00 0.00 0.00 32 1048.4
20260509220603 30 115 9.7 12.9 0.00 0.00 0.00 30 1048.4
20260509215102 30 86 9.7 14.5 0.00 0.00 0.00 31 1048.4
20260509213602 31 130 6.4 11.3 0.00 0.00 0.00 30 1048.8
20260509212102 30 38 11.3 12.9 0.00 0.00 0.00 30 1048.8
20260509205103 30 55 6.4 16.1 0.00 0.00 0.00 32 1049.1
20260509204102 30 38 9.7 14.5 0.00 0.00 0.00 30 1049.1
20260509202602 31 173 9.7 11.3 0.00 0.00 0.00 29 1049.4
20260509201102 30 153 11.3 12.9 0.00 0.00 0.00 31 1049.8
20260509195602 30 159 6.4 12.9 0.00 0.00 0.00 30 1049.8
20260509194102 31 148 8.0 12.9 0.00 0.00 0.00 30 1050.1
20260509192603 30 198 6.4 9.7 0.00 0.00 0.00 29 1050.1
20260509191102 30 153 6.4 12.9 0.00 0.00 0.00 30 1050.5
20260509185602 30 195 6.4 12.9 0.00 0.00 0.00 32 1050.5
20260509184102 29 148 4.8 14.5 0.00 0.00 0.00 33 1050.8
20260509182602 29 167 3.2 11.3 0.00 0.00 0.00 32 1050.8
20260509181102 30 92 4.8 8.0 0.00 0.00 0.00 31 1050.8
20260509175602 30 103 6.4 14.5 0.00 0.00 0.00 33 1051.1
20260509174103 29 226 11.3 11.3 0.00 0.00 0.00 33 1051.5
20260509173102 30 287 9.7 12.9 0.00 0.00 0.00 35 1051.5
20260509171602 29 154 9.7 11.3 0.00 0.00 0.00 35 1051.5
20260509164603 26 111 6.4 11.3 0.00 0.00 0.00 48 1051.8
20260509163102 26 138 6.4 12.9 0.00 0.00 0.00 54 1052.2
20260509161603 25 115 4.8 9.7 0.00 0.00 0.00 60 1052.2
20260509154602 23 162 6.4 8.0 0.00 0.00 0.00 64 1052.2
20260509153102 23 147 4.8 9.7 0.00 0.00 0.00 61 1051.8
20260509151603 23 109 6.4 8.0 0.00 0.00 0.00 55 1051.8
20260509144602 23 82 6.4 6.4 0.00 0.00 0.00 66 1051.5
20260509143302 22 96 0.0 0.0 0.00 0.00 0.00 67 1051.8
20260509141603 21 262 0.0 0.0 0.00 0.00 0.00 70 1051.8
20260509135102 20 91 0.0 0.0 0.00 0.00 0.00 73 1051.8
20260509133603 19 154 0.0 0.0 0.00 0.00 0.00 79 1051.5
20260509132602 18 128 0.0 0.0 0.00 0.00 0.00 86 1051.5
20260509125602 15 186 0.0 0.0 0.00 0.00 0.00 93 1051.1
20260509124102 15 145 0.0 0.0 0.00 0.00 0.00 93 1050.8
20260509102603 12 152 0.0 0.0 0.00 0.00 0.00 92 1050.5
20260509101102 13 208 0.0 0.0 0.00 0.00 0.00 92 1050.5
20260509095602 13 149 0.0 0.0 0.00 0.00 0.00 92 1050.8
20260509094102 13 189 0.0 0.0 0.00 0.00 0.00 92 1050.8
20260509092602 13 160 0.0 0.0 0.00 0.00 0.00 92 1050.8
20260509091102 13 150 0.0 0.0 0.00 0.00 0.00 91 1050.8
20260509085602 13 286 0.0 0.0 0.00 0.00 0.00 91 1050.8
20260509084102 13 277 0.0 0.0 0.00 0.00 0.00 91 1050.5
20260509081102 14 143 0.0 0.0 0.00 0.00 0.00 90 1050.8
20260509074103 15 109 0.0 0.0 0.00 0.00 0.00 89 1051.1
20260509072603 15 136 0.0 0.0 0.00 0.00 0.00 89 1051.1
20260509071103 15 140 0.0 0.0 0.00 0.00 0.00 88 1051.1
20260509065602 15 188 0.0 0.0 0.00 0.00 0.00 87 1051.1
20260509054602 16 107 0.0 4.8 0.00 0.00 0.00 86 1051.1
20260509045602 17 97 4.8 8.0 0.00 0.00 0.58 85 1051.1
20260509044102 17 146 6.4 6.4 0.00 0.00 0.58 85 1051.5
20260509041102 17 155 0.0 0.0 0.00 0.00 0.58 86 1051.1
20260509034102 17 124 0.0 6.4 0.00 0.00 0.58 87 1050.8
20260509032602 17 153 0.0 0.0 0.00 0.00 0.58 86 1050.1
20260509024102 18 105 3.2 6.4 0.00 0.00 0.58 85 1049.4